Weather History for Grand Forks AFB, ND

Change the Weather History Date:

Monday, February 18, 2013

  Actual Average Record
Temperature  
Mean Temperature 10 °F -  
Max Temperature 24 °F 23 °F 46 °F (2002)
Min Temperature -6 °F 5 °F -14 °F (2008)
Degree Days  
Heating Degree Days 56    
Moisture  
Dew Point 3 °F    
Average Humidity 80    
Maximum Humidity 93    
Minimum Humidity 70    
Precipitation  
Precipitation 0.00 in - - ()
Sea Level Pressure  
Sea Level Pressure 29.87 in    
Wind  
Wind Speed 24 mph (North)    
Max Wind Speed 36 mph    
Max Gust Speed 48 mph    
Visibility 2 miles    
Events Snow    
Averages and records for this station are not official NWS values.
T = Trace of Precipitation, MM = Missing Value Source: NWS Daily Summary

Daily Weather History Graph

Daily Weather History Graph

Search for Another Location

Airport:

Trip Planner

Search our weather history database for the weather conditions in past years. The results will help you decide how hot, cold, wet, or windy it might be!

Date:

Astronomy

Feb. 18, 2013 Rise Set
Actual Time 7:30 AM CST 5:57 PM CST
Civil Twilight 6:58 AM CST 6:29 PM CST
Nautical Twilight 6:22 AM CST 7:05 PM CST
Astronomical Twilight 5:46 AM CST 7:41 PM CST
Moon 11:31 AM CST (2/18) 2:23 AM CST (2/18)
Length of Visible Light 11h 30m
Length of Day
10h 27m
First Quarter, 58% of the Moon is Illuminated
Feb 18
First Quarter
Feb 25
Full
Mar 4
Last Quarter
Mar 11
New
Mar 19
First Quarter

Hourly Weather History & Observations

Time (CST) Temp. Windchill Dew Point Humidity Pressure Visibility Wind Dir Wind Speed Gust Speed Precip Events Conditions
12:00 AM 24.8 °F 12.9 °F 23.0 °F 93% 29.55 in 4.0 mi North 13.8 mph 20.7 mph N/A   Overcast
12:01 AM 24.8 °F 12.9 °F 23.0 °F 93% 29.55 in 4.0 mi North 13.8 mph 20.7 mph N/A   Overcast
12:04 AM 24.8 °F 11.9 °F 23.0 °F 93% 29.55 in 4.0 mi North 16.1 mph - N/A   Overcast
12:10 AM 24.8 °F 12.4 °F 23.0 °F 93% 29.55 in 5.0 mi North 15.0 mph - N/A   Overcast
12:27 AM 24.8 °F 12.9 °F 23.0 °F 93% 29.55 in 4.0 mi North 13.8 mph - N/A Snow Light Snow
12:32 AM 24.8 °F 11.5 °F 23.0 °F 93% 29.55 in 5.0 mi North 17.3 mph - N/A Snow Light Snow
12:55 AM 24.4 °F 11.5 °F 21.7 °F 89% 29.55 in 5.0 mi North 16.1 mph - 0.00 in   Overcast
1:11 AM 24.8 °F 12.9 °F 21.2 °F 86% 29.55 in 4.0 mi North 13.8 mph 24.2 mph N/A Snow Light Snow
1:17 AM 24.8 °F 11.1 °F 21.2 °F 86% 29.55 in 2.5 mi North 18.4 mph - N/A Snow Light Snow
1:21 AM 24.8 °F 11.5 °F 21.2 °F 86% 29.55 in 2.0 mi North 17.3 mph 21.9 mph N/A Snow Light Snow
1:25 AM 24.8 °F 11.1 °F 21.2 °F 86% 29.55 in 1.8 mi North 18.4 mph - N/A Snow Light Snow
1:29 AM 24.8 °F 11.5 °F 21.2 °F 86% 29.55 in 1.8 mi North 17.3 mph - N/A Snow Light Snow
1:35 AM 24.8 °F 11.9 °F 21.2 °F 86% 29.55 in 2.0 mi North 16.1 mph - N/A Snow Light Snow
1:44 AM 24.8 °F 11.9 °F 21.2 °F 86% 29.55 in 2.0 mi North 16.1 mph 23.0 mph N/A Snow Light Snow
1:55 AM 23.7 °F 10.5 °F 21.2 °F 90% 29.55 in 2.0 mi North 16.1 mph 25.3 mph 0.00 in Snow Light Snow
2:07 AM 23.0 °F 9.6 °F 21.2 °F 93% 29.56 in 2.5 mi NNW 16.1 mph - N/A Snow Light Snow
2:19 AM 23.0 °F 8.7 °F 21.2 °F 93% 29.57 in 2.0 mi North 18.4 mph - N/A Snow Light Snow
2:21 AM 23.0 °F 8.3 °F 21.2 °F 93% 29.57 in 2.5 mi North 19.6 mph - N/A Snow Light Snow
2:22 AM 23.0 °F 8.7 °F 21.2 °F 93% 29.57 in 2.5 mi North 18.4 mph 24.2 mph N/A Snow Light Snow
2:24 AM 23.0 °F 8.7 °F 21.2 °F 93% 29.57 in 2.5 mi North 18.4 mph 24.2 mph N/A Snow Light Snow
2:25 AM 23.0 °F 8.3 °F 21.2 °F 93% 29.57 in 3.0 mi North 19.6 mph 24.2 mph N/A Snow Light Snow
2:27 AM 23.0 °F 8.3 °F 21.2 °F 93% 29.57 in 3.0 mi North 19.6 mph 24.2 mph N/A Snow Light Snow
2:35 AM 23.0 °F 8.7 °F 21.2 °F 93% 29.57 in 6.0 mi North 18.4 mph 25.3 mph N/A Snow Light Snow
2:50 AM 23.0 °F 7.2 °F 21.2 °F 93% 29.58 in 6.0 mi North 23.0 mph 27.6 mph N/A Snow Light Snow
2:55 AM 23.4 °F 7.4 °F 20.3 °F 88% 29.58 in 6.0 mi North 24.2 mph 31.1 mph 0.00 in Snow Light Snow
3:01 AM 23.0 °F 6.9 °F 19.4 °F 86% 29.59 in 4.0 mi North 24.2 mph 32.2 mph N/A Snow Light Snow
3:11 AM 23.0 °F 8.0 °F 19.4 °F 86% 29.59 in 2.5 mi North 20.7 mph 28.8 mph N/A Snow Light Snow
3:12 AM 23.0 °F 8.3 °F 19.4 °F 86% 29.59 in 2.5 mi North 19.6 mph 28.8 mph N/A Snow Light Snow
3:15 AM 23.0 °F 7.6 °F 19.4 °F 86% 29.60 in 2.0 mi North 21.9 mph 29.9 mph N/A Snow Light Snow
3:16 AM 23.0 °F 7.2 °F 19.4 °F 86% 29.60 in 2.0 mi North 23.0 mph 29.9 mph N/A Snow Light Snow
3:17 AM 23.0 °F 6.9 °F 19.4 °F 86% 29.60 in 1.8 mi North 24.2 mph 32.2 mph N/A Snow Light Snow
3:38 AM 21.2 °F 3.3 °F 17.6 °F 86% 29.60 in 1.5 mi North 28.8 mph 33.4 mph N/A Snow Light Snow
3:42 AM 21.2 °F 4.5 °F 17.6 °F 86% 29.61 in 1.2 mi North 24.2 mph 34.5 mph N/A Snow Light Snow
3:55 AM 20.5 °F 3.2 °F 17.4 °F 88% 29.61 in 1.2 mi North 25.3 mph 36.8 mph 0.00 in Snow Light Snow
4:22 AM 19.4 °F -0.8 °F 15.8 °F 86% 29.62 in 1.0 mi North 35.7 mph 44.9 mph N/A Snow Light Snow
4:33 AM 19.4 °F 1.1 °F 15.8 °F 86% 29.64 in 1.0 mi North 27.6 mph 41.4 mph N/A Snow Light Snow
4:37 AM 17.6 °F -2.5 °F 15.8 °F 93% 29.64 in 1.0 mi North 32.2 mph 41.4 mph N/A Snow Light Snow
4:38 AM 17.6 °F -3.1 °F 15.8 °F 93% 29.64 in 1.0 mi North 34.5 mph 41.4 mph N/A Snow Light Snow
4:43 AM 17.6 °F -2.2 °F 14.0 °F 86% 29.65 in 0.8 mi North 31.1 mph 43.7 mph N/A Snow Light Snow
4:45 AM 17.6 °F -1.6 °F 14.0 °F 86% 29.65 in 1.0 mi North 28.8 mph 43.7 mph N/A Snow Light Snow
4:51 AM 17.6 °F -1.3 °F 14.0 °F 86% 29.65 in 1.2 mi North 27.6 mph 40.3 mph N/A Snow Light Snow
4:56 AM 17.6 °F -1.0 °F 14.0 °F 86% 29.66 in 1.0 mi North 26.5 mph 39.1 mph N/A Snow Light Snow
5:01 AM 17.6 °F -1.6 °F 14.0 °F 86% 29.66 in 1.0 mi North 28.8 mph 40.3 mph N/A Snow Light Snow
5:03 AM 15.8 °F -3.4 °F 14.0 °F 93% 29.66 in 1.0 mi North 26.5 mph 40.3 mph N/A Snow Light Snow
5:09 AM 15.8 °F -5.8 °F 12.2 °F 86% 29.67 in 1.0 mi North 35.7 mph 42.6 mph N/A Snow Light Snow
5:11 AM 15.8 °F -5.2 °F 12.2 °F 86% 29.67 in 1.0 mi North 33.4 mph 42.6 mph N/A Snow Light Snow
5:18 AM 15.8 °F -4.1 °F 12.2 °F 86% 29.68 in 1.2 mi North 28.8 mph 42.6 mph N/A Snow Light Snow
5:30 AM 14.0 °F -7.1 °F 10.4 °F 86% 29.69 in 1.0 mi North 31.1 mph 39.1 mph N/A Snow Light Snow
5:38 AM 14.0 °F -6.5 °F 10.4 °F 86% 29.70 in 1.0 mi North 28.8 mph 42.6 mph N/A Snow Light Snow
5:42 AM 14.0 °F -7.1 °F 10.4 °F 86% 29.70 in 1.0 mi North 31.1 mph 42.6 mph N/A Snow Light Snow
5:43 AM 14.0 °F -7.4 °F 10.4 °F 86% 29.70 in 0.8 mi North 32.2 mph 42.6 mph N/A Snow Light Snow
5:55 AM 13.5 °F -8.2 °F 9.7 °F 85% 29.71 in 0.8 mi North 32.2 mph 42.6 mph 0.00 in Snow Light Snow
5:59 AM 12.2 °F -9.6 °F 8.6 °F 85% 29.71 in 0.8 mi North 31.1 mph 39.1 mph N/A Snow Light Snow
6:07 AM 12.2 °F -9.3 °F 8.6 °F 85% 29.72 in 0.8 mi North 29.9 mph 41.4 mph N/A Snow Light Snow
6:08 AM 12.2 °F -7.9 °F 8.6 °F 85% 29.72 in 0.8 mi North 25.3 mph 41.4 mph N/A Snow Light Snow
6:11 AM 12.2 °F -9.3 °F 8.6 °F 85% 29.73 in 1.0 mi North 29.9 mph 41.4 mph N/A Snow Light Snow
6:19 AM 12.2 °F -9.9 °F 8.6 °F 85% 29.73 in 0.8 mi North 32.2 mph 39.1 mph N/A Snow Light Snow
6:35 AM 10.4 °F -11.4 °F 6.8 °F 85% 29.75 in 0.8 mi North 28.8 mph 48.3 mph N/A Snow Light Snow
6:36 AM 10.4 °F -11.0 °F 6.8 °F 85% 29.75 in 1.0 mi North 27.6 mph 48.3 mph N/A Snow Light Snow
6:40 AM 10.4 °F -12.0 °F 6.8 °F 85% 29.75 in 1.2 mi North 31.1 mph 40.3 mph N/A Snow Light Snow
6:51 AM 10.4 °F -12.3 °F 6.8 °F 85% 29.76 in 1.0 mi North 32.2 mph 39.1 mph N/A Snow Light Snow
6:57 AM 10.4 °F -10.7 °F 6.8 °F 85% 29.76 in 0.8 mi North 26.5 mph 39.1 mph N/A Snow Light Snow
6:59 AM 10.4 °F -10.7 °F 6.8 °F 85% 29.76 in 1.0 mi North 26.5 mph 39.1 mph N/A Snow Light Snow
7:04 AM 10.4 °F -9.5 °F 6.8 °F 85% 29.77 in 1.2 mi North 23.0 mph 38.0 mph N/A Snow Light Snow
7:23 AM 8.6 °F -13.4 °F 5.0 °F 85% 29.78 in 1.0 mi North 27.6 mph 39.1 mph N/A Snow Light Snow
7:27 AM 8.6 °F -15.4 °F 5.0 °F 85% 29.78 in 0.8 mi North 34.5 mph 42.6 mph N/A Snow Light Snow
7:28 AM 8.6 °F -14.8 °F 5.0 °F 85% 29.78 in 0.8 mi North 32.2 mph 42.6 mph N/A Snow Light Snow
7:32 AM 8.6 °F -13.8 °F 5.0 °F 85% 29.78 in 0.8 mi North 28.8 mph 42.6 mph N/A Snow Light Snow
7:35 AM 8.6 °F -13.4 °F 5.0 °F 85% 29.78 in 0.5 mi North 27.6 mph 42.6 mph N/A Snow Snow
7:41 AM 8.6 °F -12.7 °F 5.0 °F 85% 29.79 in 0.5 mi North 25.3 mph 36.8 mph N/A Snow Snow
7:55 AM 8.2 °F -14.6 °F 3.9 °F 83% 29.79 in 0.5 mi North 29.9 mph 38.0 mph 0.00 in Snow Snow
8:02 AM 8.6 °F -14.1 °F 3.2 °F 79% 29.80 in 0.5 mi North 29.9 mph 44.9 mph N/A Snow Snow
8:03 AM 8.6 °F -13.1 °F 3.2 °F 79% 29.80 in 0.5 mi North 26.5 mph 44.9 mph N/A Snow Snow
8:05 AM 8.6 °F -13.1 °F 3.2 °F 79% 29.80 in 0.5 mi North 26.5 mph 44.9 mph N/A Snow Snow
8:10 AM 8.6 °F -14.1 °F 3.2 °F 79% 29.80 in 0.8 mi North 29.9 mph 38.0 mph N/A Snow Light Snow
8:11 AM 8.6 °F -14.8 °F 3.2 °F 79% 29.80 in 0.8 mi North 32.2 mph 38.0 mph N/A Snow Light Snow
8:15 AM 8.6 °F -12.3 °F 3.2 °F 79% 29.81 in 0.8 mi North 24.2 mph 38.0 mph N/A Snow Light Snow
8:23 AM 8.6 °F -15.1 °F 3.2 °F 79% 29.81 in 0.5 mi North 33.4 mph 40.3 mph N/A Snow Snow
8:25 AM 6.8 °F -16.6 °F 3.2 °F 85% 29.81 in 0.5 mi North 29.9 mph 40.3 mph N/A Snow Snow
8:26 AM 6.8 °F -16.6 °F 3.2 °F 85% 29.81 in 0.5 mi North 29.9 mph 40.3 mph N/A Snow Snow
8:28 AM 6.8 °F -15.5 °F 3.2 °F 85% 29.81 in 0.5 mi North 26.5 mph 40.3 mph N/A Snow Snow
8:31 AM 6.8 °F -16.6 °F 3.2 °F 85% 29.81 in 0.5 mi North 29.9 mph 40.3 mph N/A Snow Snow
8:33 AM 6.8 °F -15.5 °F 3.2 °F 85% 29.81 in 0.8 mi North 26.5 mph 39.1 mph N/A Snow Light Snow
8:36 AM 6.8 °F -16.9 °F 3.2 °F 85% 29.81 in 0.5 mi North 31.1 mph 40.3 mph N/A Snow Snow
8:37 AM 6.8 °F -16.2 °F 3.2 °F 85% 29.81 in 0.5 mi North 28.8 mph 40.3 mph N/A Snow Snow
8:41 AM 6.8 °F -16.9 °F 3.2 °F 85% 29.81 in 0.8 mi North 31.1 mph 40.3 mph N/A Snow Light Snow
8:42 AM 6.8 °F -16.9 °F 3.2 °F 85% 29.81 in 0.8 mi North 31.1 mph 40.3 mph N/A Snow Light Snow
8:49 AM 6.8 °F -16.6 °F 1.4 °F 79% 29.82 in 0.8 mi North 29.9 mph 41.4 mph N/A Snow Light Snow
8:50 AM 6.8 °F -16.6 °F 1.4 °F 79% 29.82 in 0.8 mi North 29.9 mph 41.4 mph N/A Snow Light Snow
8:53 AM 6.8 °F -14.7 °F 1.4 °F 79% 29.83 in 0.8 mi North 24.2 mph 41.4 mph N/A Snow Light Snow
8:55 AM 6.8 °F -15.5 °F 1.4 °F 79% 29.82 in 1.0 mi North 26.5 mph 41.4 mph N/A Snow Light Snow
8:58 AM 6.8 °F -15.9 °F 1.4 °F 79% 29.83 in 1.2 mi North 27.6 mph 36.8 mph N/A Snow Light Snow
9:01 AM 6.8 °F -16.6 °F 1.4 °F 79% 29.83 in 1.0 mi North 29.9 mph 36.8 mph N/A Snow Light Snow
9:02 AM 6.8 °F -16.6 °F 1.4 °F 79% 29.83 in 1.0 mi North 29.9 mph 36.8 mph N/A Snow Light Snow
9:06 AM 6.8 °F -17.3 °F 1.4 °F 79% 29.82 in 0.8 mi North 32.2 mph 39.1 mph N/A Snow Light Snow
9:08 AM 6.8 °F -16.2 °F 1.4 °F 79% 29.83 in 0.8 mi North 28.8 mph 39.1 mph N/A Snow Light Snow
9:10 AM 6.8 °F -15.9 °F 1.4 °F 79% 29.83 in 0.8 mi North 27.6 mph 39.1 mph N/A Snow Light Snow
9:11 AM 6.8 °F -15.1 °F 1.4 °F 79% 29.83 in 1.0 mi North 25.3 mph 39.1 mph N/A Snow Light Snow
9:15 AM 6.8 °F -16.2 °F 1.4 °F 79% 29.83 in 1.0 mi North 28.8 mph 39.1 mph N/A Snow Light Snow
9:21 AM 6.8 °F -16.9 °F 1.4 °F 79% 29.84 in 0.8 mi North 31.1 mph 39.1 mph N/A Snow Light Snow
9:24 AM 6.8 °F -16.9 °F 1.4 °F 79% 29.84 in 0.8 mi North 31.1 mph 42.6 mph N/A Snow Light Snow
9:29 AM 6.8 °F -15.5 °F 1.4 °F 79% 29.84 in 0.8 mi North 26.5 mph 42.6 mph N/A Snow Light Snow
9:30 AM 6.8 °F -15.5 °F 1.4 °F 79% 29.84 in 0.8 mi North 26.5 mph 42.6 mph N/A Snow Light Snow
9:48 AM 6.8 °F -15.1 °F 1.4 °F 79% 29.85 in 0.8 mi North 25.3 mph 43.7 mph N/A Snow Blowing Snow
9:55 AM 6.8 °F -16.6 °F 1.8 °F 80% 29.85 in 0.8 mi North 29.9 mph 38.0 mph 0.00 in Snow Light Snow
10:00 AM 6.8 °F -15.9 °F 1.4 °F 79% 29.86 in 0.8 mi North 27.6 mph 41.4 mph N/A Snow Blowing Snow
10:02 AM 6.8 °F -14.3 °F 1.4 °F 79% 29.86 in 0.8 mi North 23.0 mph 41.4 mph N/A Snow Blowing Snow
10:12 AM 6.8 °F -15.9 °F 1.4 °F 79% 29.87 in 0.8 mi North 27.6 mph 34.5 mph N/A Snow Blowing Snow
10:18 AM 6.8 °F -16.2 °F 1.4 °F 79% 29.87 in 0.8 mi North 28.8 mph 40.3 mph N/A Snow Blowing Snow
10:25 AM 6.8 °F -14.7 °F 1.4 °F 79% 29.88 in 1.0 mi North 24.2 mph 40.3 mph N/A Snow Blowing Snow
10:27 AM 6.8 °F -12.9 °F 1.4 °F 79% 29.88 in 1.0 mi North 19.6 mph 36.8 mph N/A Snow Blowing Snow
10:36 AM 6.8 °F -16.6 °F 1.4 °F 79% 29.89 in 0.8 mi North 29.9 mph 35.7 mph N/A Snow Light Snow
10:37 AM 5.0 °F -17.9 °F 1.4 °F 85% 29.89 in 0.8 mi North 26.5 mph 35.7 mph N/A Snow Light Snow
10:43 AM 5.0 °F -18.3 °F -0.4 °F 78% 29.89 in 0.8 mi North 27.6 mph 35.7 mph N/A Snow Light Snow
10:48 AM 5.0 °F -17.9 °F -0.4 °F 78% 29.89 in 0.8 mi North 26.5 mph 38.0 mph N/A Snow Blowing Snow
10:53 AM 5.0 °F -17.5 °F -0.4 °F 78% 29.90 in 1.0 mi North 25.3 mph 38.0 mph N/A Snow Light Snow
10:55 AM 5.2 °F -17.7 °F -0.4 °F 78% 29.90 in 0.8 mi North 26.5 mph 38.0 mph 0.00 in Snow Light Snow
10:56 AM 5.0 °F -19.4 °F -0.4 °F 78% 29.89 in 1.0 mi North 31.1 mph 38.0 mph N/A Snow Light Snow
10:57 AM 5.0 °F -19.4 °F -0.4 °F 78% 29.90 in 0.8 mi North 31.1 mph 38.0 mph N/A Snow Light Snow
11:02 AM 5.0 °F -20.1 °F -0.4 °F 78% 29.89 in 0.5 mi North 33.4 mph 38.0 mph N/A Snow Snow
11:03 AM 5.0 °F -19.4 °F -0.4 °F 78% 29.90 in 0.5 mi North 31.1 mph 38.0 mph N/A Snow Blowing Snow
11:05 AM 5.0 °F -17.9 °F -0.4 °F 78% 29.90 in 0.5 mi North 26.5 mph 38.0 mph N/A Snow Blowing Snow
11:07 AM 5.0 °F -18.3 °F -0.4 °F 78% 29.90 in 0.8 mi North 27.6 mph 38.0 mph N/A Snow Blowing Snow
11:09 AM 5.0 °F -19.4 °F -0.4 °F 78% 29.90 in 0.8 mi North 31.1 mph 38.0 mph N/A Snow Blowing Snow
11:10 AM 5.0 °F -17.9 °F -0.4 °F 78% 29.91 in 0.8 mi North 26.5 mph 38.0 mph N/A Snow Blowing Snow
11:12 AM 5.0 °F -18.3 °F -2.2 °F 72% 29.91 in 1.0 mi North 27.6 mph 38.0 mph N/A Snow Light Snow
11:13 AM 5.0 °F -18.3 °F -2.2 °F 72% 29.91 in 1.0 mi North 27.6 mph 38.0 mph N/A Snow Light Snow
11:25 AM 3.2 °F -21.8 °F -2.2 °F 78% 29.91 in 1.0 mi North 31.1 mph 39.1 mph N/A Snow Blowing Snow
11:30 AM 3.2 °F -21.5 °F -2.2 °F 78% 29.92 in 1.2 mi North 29.9 mph 38.0 mph N/A Snow Light Snow
11:33 AM 3.2 °F -20.3 °F -2.2 °F 78% 29.93 in 1.2 mi North 26.5 mph 38.0 mph N/A Snow Light Snow
11:36 AM 3.2 °F -19.5 °F -2.2 °F 78% 29.93 in 1.0 mi North 24.2 mph 36.8 mph N/A Snow Light Snow
11:37 AM 5.0 °F -17.5 °F -2.2 °F 72% 29.93 in 1.0 mi North 25.3 mph 36.8 mph N/A Snow Light Snow
11:40 AM 5.0 °F -17.5 °F -2.2 °F 72% 29.94 in 0.8 mi North 25.3 mph 36.8 mph N/A Snow Light Snow
11:45 AM 5.0 °F -16.2 °F -2.2 °F 72% 29.94 in 1.0 mi North 21.9 mph 33.4 mph N/A Snow Light Snow
11:47 AM 5.0 °F -17.1 °F -2.2 °F 72% 29.94 in 1.2 mi North 24.2 mph 33.4 mph N/A Snow Light Snow
11:53 AM 3.2 °F -21.1 °F -2.2 °F 78% 29.94 in 1.2 mi North 28.8 mph 41.4 mph N/A Snow Light Snow
11:55 AM 4.1 °F -19.5 °F -2.4 °F 75% 29.94 in 1.2 mi North 27.6 mph 41.4 mph 0.00 in Snow Light Snow
11:59 AM 3.2 °F -19.5 °F -2.2 °F 78% 29.94 in 1.5 mi North 24.2 mph 36.8 mph N/A Snow Light Snow
12:09 PM 3.2 °F -19.5 °F -2.2 °F 78% 29.95 in 1.2 mi North 24.2 mph 31.1 mph N/A Snow Light Snow
12:11 PM 3.2 °F -20.7 °F -2.2 °F 78% 29.95 in 1.2 mi North 27.6 mph 36.8 mph N/A Snow Light Snow
12:16 PM 3.2 °F -18.6 °F -2.2 °F 78% 29.95 in 1.5 mi North 21.9 mph 36.8 mph N/A Snow Light Snow
12:31 PM 3.2 °F -20.7 °F -4.0 °F 72% 29.95 in 1.5 mi North 27.6 mph 36.8 mph N/A Snow Light Snow
12:40 PM 3.2 °F -19.5 °F -4.0 °F 72% 29.96 in 2.0 mi North 24.2 mph 38.0 mph N/A Snow Light Snow
12:48 PM 3.2 °F -21.5 °F -4.0 °F 72% 29.96 in 1.8 mi North 29.9 mph 36.8 mph N/A Snow Blowing Snow
12:55 PM 2.8 °F -20.4 °F -3.5 °F 75% 29.96 in 1.2 mi North 25.3 mph 36.8 mph 0.00 in Snow Blowing Snow
12:56 PM 3.2 °F -22.2 °F -4.0 °F 72% 29.96 in 1.0 mi North 32.2 mph 38.0 mph N/A Snow Blowing Snow
1:03 PM 3.2 °F -20.3 °F -4.0 °F 72% 29.96 in 1.2 mi North 26.5 mph 38.0 mph N/A Snow Light Snow
1:07 PM 3.2 °F -20.7 °F -4.0 °F 72% 29.96 in 1.5 mi North 27.6 mph 35.7 mph N/A Snow Light Snow
1:12 PM 1.4 °F -23.2 °F -4.0 °F 78% 29.96 in 1.2 mi North 27.6 mph 36.8 mph N/A Snow Light Snow
1:15 PM 1.4 °F -23.5 °F -4.0 °F 78% 29.96 in 1.0 mi North 28.8 mph 36.8 mph N/A Snow Light Snow
1:18 PM 1.4 °F -24.3 °F -4.0 °F 78% 29.96 in 0.8 mi North 31.1 mph 36.8 mph N/A Snow Light Snow
1:25 PM 1.4 °F -23.5 °F -4.0 °F 78% 29.96 in 1.0 mi North 28.8 mph 36.8 mph N/A Snow Light Snow
1:34 PM 1.4 °F -22.7 °F -4.0 °F 78% 29.97 in 1.2 mi North 26.5 mph 33.4 mph N/A Snow Light Snow
1:37 PM 1.4 °F -23.5 °F -4.0 °F 78% 29.97 in 1.5 mi North 28.8 mph 36.8 mph N/A Snow Light Snow
1:40 PM 1.4 °F -22.7 °F -4.0 °F 78% 29.97 in 2.0 mi North 26.5 mph 36.8 mph N/A Snow Light Snow
1:55 PM 1.9 °F -20.2 °F -4.5 °F 74% 29.98 in 2.0 mi North 21.9 mph 35.7 mph 0.00 in   Light Freezing Rain
1:57 PM 1.4 °F -23.9 °F -4.0 °F 78% 29.98 in 1.8 mi North 29.9 mph 35.7 mph N/A   Light Freezing Rain
2:00 PM 1.4 °F -22.3 °F -4.0 °F 78% 29.98 in 2.0 mi North 25.3 mph 34.5 mph N/A   Light Freezing Rain
2:03 PM 1.4 °F -23.5 °F -4.0 °F 78% 29.98 in 1.8 mi North 28.8 mph 36.8 mph N/A   Light Freezing Rain
2:07 PM 1.4 °F -22.7 °F -4.0 °F 78% 29.98 in 1.2 mi North 26.5 mph 38.0 mph N/A   Light Freezing Rain
2:13 PM 1.4 °F -22.7 °F -5.8 °F 72% 29.98 in 1.2 mi North 26.5 mph 38.0 mph N/A   Light Freezing Rain
2:14 PM 1.4 °F -21.4 °F -5.8 °F 72% 29.98 in 1.5 mi North 23.0 mph 38.0 mph N/A   Light Freezing Rain
2:23 PM 1.4 °F -22.7 °F -5.8 °F 72% 29.99 in 1.8 mi North 26.5 mph 36.8 mph N/A   Light Freezing Rain
2:25 PM 1.4 °F -22.7 °F -5.8 °F 72% 29.99 in 2.0 mi North 26.5 mph 36.8 mph N/A   Light Freezing Rain
2:30 PM 1.4 °F -19.9 °F -5.8 °F 72% 29.99 in 3.0 mi North 19.6 mph 34.5 mph N/A   Light Freezing Rain
2:35 PM 1.4 °F -21.4 °F -5.8 °F 72% 29.99 in 2.5 mi North 23.0 mph 34.5 mph N/A   Light Freezing Rain
2:36 PM 1.4 °F -23.2 °F -5.8 °F 72% 29.99 in 2.5 mi North 27.6 mph 34.5 mph N/A   Light Freezing Rain
2:44 PM 1.4 °F -23.2 °F -5.8 °F 72% 29.99 in 1.8 mi North 27.6 mph 34.5 mph N/A   Light Freezing Rain
2:46 PM 1.4 °F -21.9 °F -5.8 °F 72% 29.99 in 2.0 mi North 24.2 mph 33.4 mph N/A   Light Freezing Rain
2:55 PM 1.2 °F -21.2 °F -5.1 °F 75% 29.99 in 2.0 mi North 21.9 mph 33.4 mph 0.00 in   Light Freezing Rain
2:57 PM 1.4 °F -21.0 °F -4.0 °F 78% 30.00 in 2.5 mi North 21.9 mph 31.1 mph N/A   Light Freezing Rain
2:59 PM 1.4 °F -22.3 °F -4.0 °F 78% 30.00 in 2.5 mi North 25.3 mph 31.1 mph N/A   Light Freezing Rain
3:10 PM 1.4 °F -21.4 °F -5.8 °F 72% 30.01 in 3.0 mi North 23.0 mph 33.4 mph N/A   Light Freezing Rain
3:11 PM 1.4 °F -21.4 °F -5.8 °F 72% 30.01 in 3.0 mi North 23.0 mph 33.4 mph N/A   Light Freezing Rain
3:39 PM 1.4 °F -22.7 °F -5.8 °F 72% 30.02 in 2.5 mi North 26.5 mph 33.4 mph N/A   Light Freezing Rain
3:44 PM 1.4 °F -21.4 °F -5.8 °F 72% 30.02 in 2.0 mi North 23.0 mph 33.4 mph N/A   Light Freezing Rain
3:49 PM 1.4 °F -22.7 °F -5.8 °F 72% 30.02 in 1.8 mi North 26.5 mph 34.5 mph N/A   Light Freezing Rain
3:55 PM 0.7 °F -24.1 °F -5.6 °F 75% 30.03 in 1.8 mi North 27.6 mph 34.5 mph 0.00 in   Light Freezing Rain
3:59 PM -0.4 °F -24.3 °F -5.8 °F 78% 30.03 in 3.0 mi North 24.2 mph 34.5 mph N/A   Light Freezing Rain
4:15 PM -0.4 °F -23.8 °F -5.8 °F 78% 30.03 in 2.5 mi North 23.0 mph 29.9 mph N/A   Light Freezing Rain
4:20 PM -0.4 °F -24.7 °F -5.8 °F 78% 30.03 in 3.0 mi North 25.3 mph 31.1 mph N/A   Light Freezing Rain
4:28 PM -0.4 °F -24.3 °F -5.8 °F 78% 30.04 in 2.5 mi North 24.2 mph 31.1 mph N/A   Light Freezing Rain
4:43 PM -0.4 °F -24.3 °F -7.6 °F 72% 30.04 in 3.0 mi North 24.2 mph 31.1 mph N/A   Light Freezing Rain
4:55 PM -0.4 °F -23.8 °F -7.1 °F 73% 30.05 in 6.0 mi North 23.0 mph 31.1 mph 0.00 in   Light Freezing Rain
5:08 PM -0.4 °F -25.2 °F -7.6 °F 72% 30.05 in 2.5 mi North 26.5 mph 34.5 mph N/A Snow Blowing Snow
5:29 PM -0.4 °F -23.8 °F -5.8 °F 78% 30.07 in 2.5 mi North 23.0 mph 29.9 mph N/A   Light Freezing Rain
5:31 PM -0.4 °F -24.3 °F -5.8 °F 78% 30.07 in 2.5 mi North 24.2 mph 28.8 mph N/A   Light Freezing Rain
5:38 PM -0.4 °F -25.2 °F -5.8 °F 78% 30.07 in 1.8 mi North 26.5 mph 32.2 mph N/A   Light Freezing Rain
5:44 PM -0.4 °F -23.8 °F -5.8 °F 78% 30.08 in 1.5 mi North 23.0 mph 32.2 mph N/A   Light Freezing Rain
5:48 PM -0.4 °F -24.3 °F -7.6 °F 72% 30.08 in 2.0 mi North 24.2 mph 29.9 mph N/A   Light Freezing Rain
5:53 PM -0.4 °F -23.3 °F -7.6 °F 72% 30.08 in 3.0 mi North 21.9 mph 29.9 mph N/A   Light Freezing Rain
5:55 PM -0.8 °F -24.3 °F -6.9 °F 75% 30.08 in 2.5 mi North 23.0 mph 29.9 mph 0.00 in   Light Freezing Rain
6:11 PM -0.4 °F -25.6 °F -7.6 °F 72% 30.09 in 4.0 mi North 27.6 mph 35.7 mph N/A   Light Freezing Rain
6:13 PM -0.4 °F -25.2 °F -7.6 °F 72% 30.09 in 4.0 mi North 26.5 mph 35.7 mph N/A   Light Freezing Rain
6:49 PM -0.4 °F -24.7 °F -7.6 °F 72% 30.11 in 4.0 mi North 25.3 mph 34.5 mph N/A   Light Freezing Rain
6:54 PM -0.4 °F -25.2 °F -7.6 °F 72% 30.11 in 4.0 mi North 26.5 mph 34.5 mph N/A   Light Freezing Rain
6:55 PM -0.8 °F -24.8 °F -7.2 °F 74% 30.11 in 4.0 mi North 24.2 mph 34.5 mph 0.00 in   Light Freezing Rain
7:44 PM -0.4 °F -25.2 °F -7.6 °F 72% 30.13 in 3.0 mi North 26.5 mph 33.4 mph N/A   Light Freezing Rain
7:46 PM -0.4 °F -25.2 °F -7.6 °F 72% 30.13 in 3.0 mi North 26.5 mph 34.5 mph N/A   Light Freezing Rain
7:55 PM -1.1 °F -24.3 °F -7.2 °F 75% 30.13 in 5.0 mi North 21.9 mph 34.5 mph 0.00 in   Light Freezing Rain
8:22 PM -0.4 °F -24.3 °F -7.6 °F 72% 30.14 in 4.0 mi North 24.2 mph 31.1 mph N/A   Light Freezing Rain
8:26 PM -0.4 °F -24.7 °F -7.6 °F 72% 30.14 in 3.0 mi North 25.3 mph 32.2 mph N/A   Light Freezing Rain
8:33 PM -0.4 °F -23.8 °F -7.6 °F 72% 30.14 in 3.0 mi North 23.0 mph 34.5 mph N/A   Light Freezing Rain
8:40 PM -0.4 °F -24.7 °F -7.6 °F 72% 30.14 in 4.0 mi North 25.3 mph 33.4 mph N/A   Light Freezing Rain
8:43 PM -0.4 °F -25.6 °F -7.6 °F 72% 30.14 in 4.0 mi North 27.6 mph 34.5 mph N/A   Light Freezing Rain
8:46 PM -0.4 °F -23.8 °F -7.6 °F 72% 30.14 in 4.0 mi North 23.0 mph 35.7 mph N/A   Light Freezing Rain
8:48 PM -0.4 °F -22.8 °F -7.6 °F 72% 30.14 in 4.0 mi North 20.7 mph 35.7 mph N/A   Light Freezing Rain
8:55 PM -1.1 °F -25.2 °F -7.4 °F 75% 30.14 in 4.0 mi North 24.2 mph 35.7 mph 0.00 in   Light Freezing Rain
9:18 PM -2.2 °F -26.7 °F -7.6 °F 78% 30.15 in 4.0 mi North 24.2 mph 34.5 mph N/A   Light Freezing Rain
9:22 PM -2.2 °F -28.0 °F -7.6 °F 78% 30.15 in 4.0 mi North 27.6 mph 33.4 mph N/A   Light Freezing Rain
9:28 PM -2.2 °F -27.6 °F -7.6 °F 78% 30.15 in 4.0 mi North 26.5 mph 32.2 mph N/A   Light Freezing Rain
9:33 PM -2.2 °F -27.1 °F -7.6 °F 78% 30.15 in 4.0 mi North 25.3 mph 32.2 mph N/A   Light Freezing Rain
9:55 PM -2.6 °F -28.1 °F -8.5 °F 76% 30.16 in 3.0 mi North 26.5 mph 34.5 mph 0.00 in   Light Freezing Rain
9:57 PM -2.2 °F -27.1 °F -9.4 °F 71% 30.16 in 4.0 mi North 25.3 mph 34.5 mph N/A   Light Freezing Rain
10:31 PM -4.0 °F -30.9 °F -9.4 °F 78% 30.17 in 4.0 mi North 28.8 mph 35.7 mph N/A   Light Freezing Rain
10:38 PM -4.0 °F -28.1 °F -9.4 °F 78% 30.17 in 4.0 mi North 21.9 mph 35.7 mph N/A   Light Freezing Rain
10:51 PM -4.0 °F -28.6 °F -9.4 °F 78% 30.18 in 3.0 mi North 23.0 mph 36.8 mph N/A   Light Freezing Rain
10:53 PM -4.0 °F -29.6 °F -9.4 °F 78% 30.18 in 4.0 mi North 25.3 mph 36.8 mph N/A   Light Freezing Rain
11:13 PM -4.0 °F -29.1 °F -11.2 °F 71% 30.19 in 7.0 mi North 24.2 mph 33.4 mph N/A   Light Freezing Rain
11:19 PM -5.8 °F -33.3 °F -11.2 °F 77% 30.19 in 8.0 mi North 28.8 mph 33.4 mph N/A   Overcast
11:20 PM -5.8 °F -32.9 °F -11.2 °F 77% 30.19 in 8.0 mi North 27.6 mph 33.4 mph N/A   Light Freezing Rain
11:21 PM -5.8 °F -32.4 °F -11.2 °F 77% 30.19 in 8.0 mi North 26.5 mph 33.4 mph N/A   Overcast
11:32 PM -5.8 °F -31.0 °F -13.0 °F 71% 30.19 in 10.0 mi North 23.0 mph 32.2 mph N/A   Overcast
11:55 PM -6.0 °F -30.7 °F -13.4 °F 70% 30.20 in 10.0 mi North 21.9 mph 32.2 mph 0.00 in   Overcast